sat.trackr.live / text

‹ back to catalog

HAIYANG-2B

NORAD 43655 · 2018-081A

PAYLOAD ACTIVE UNKNOWN

§ Identity

Operator
Country
PRC
Launch date
2018-10-24
Launch site
TAISC
Launch vehicle
Mass (kg)
RCS (m²)

External: N2YO · Heavens-Above · Gunter

§ Orbital elements

Epoch: 2026-09-13T05:24:04.428864Z

Period
104.40 min
Inclination
99.3316°
Eccentricity
0.0001875
Mean motion
13.79304695 rev/d
Perigee alt
965.0 km
Apogee alt
967.7 km
Semi-major
7,344.5 km
B*
-2.0061e-4
RAAN
263.6633°
Arg perigee
67.6436°
Mean anomaly
292.4914°
Rev number
39,706

§ Raw data

HAIYANG-2B1 43655U 18081A   26256.22505126 -.00000250  00000+0 -20061-3 0  99952 43655  99.3316 263.6633 0001875  67.6436 292.4914 13.79304695397061

JSON: /api/v1/satellites/43655 · /tle

For live sub-satellite position, see the globe view (requires WebGL).

§ Visibility from observer

Set your observer location to see the next 7 days of passes ≥ 10°. The values pass through the URL so the page stays shareable.

No JS? Fill the form by hand. The geolocation button needs JavaScript.

§ Radio — SatNOGS DB

ModeDescriptionDownlinkUplink
FM S-band telemetry 2.247 GHz

1 transmitter · refreshed weekly from db.satnogs.org